BHS257 MYGF-KPBI

Flight info

Callsign BHS257
Flight time 0h 33m
Altitude FL080
Route MUNRO BR68V MRLIN
Aircraft A748/M-SDFHY/C

Departure

Time 2026-04-26 13:29
Airport Grand Bahama International Airport (MYGF)

Arrival

Time 2026-04-26 14:02
Airport Palm Beach International Airport (KPBI)
Time Latitude Longitude Altitude Speed Heading
2026-04-26 13:07 26.54802 -78.70403 16 ft 0 kts 67°
2026-04-26 13:24 26.54804 -78.70396 16 ft 2 kts 66°
2026-04-26 13:24 26.54834 -78.70321 16 ft 18 kts 70°
2026-04-26 13:24 26.54860 -78.70210 16 ft 16 kts 83°
2026-04-26 13:25 26.54862 -78.70104 16 ft 16 kts 82°
2026-04-26 13:25 26.54895 -78.70067 16 ft 1 kts 33°
2026-04-26 13:25 26.54921 -78.70049 16 ft 13 kts 32°
2026-04-26 13:25 26.55031 -78.69977 16 ft 15 kts 27°
2026-04-26 13:26 26.55136 -78.69907 16 ft 25 kts 31°
2026-04-26 13:26 26.55305 -78.69789 16 ft 29 kts 33°
2026-04-26 13:26 26.55473 -78.69683 16 ft 29 kts 31°
2026-04-26 13:26 26.55630 -78.69574 16 ft 21 kts 33°
2026-04-26 13:27 26.55739 -78.69496 16 ft 20 kts 33°
2026-04-26 13:27 26.55851 -78.69384 16 ft 24 kts 58°
2026-04-26 13:27 26.55935 -78.69216 16 ft 25 kts 60°
2026-04-26 13:27 26.56017 -78.69051 16 ft 20 kts 59°
2026-04-26 13:28 26.56073 -78.68956 16 ft 12 kts 47°
2026-04-26 13:28 26.56152 -78.68993 16 ft 9 kts 251°
2026-04-26 13:28 26.56120 -78.69063 16 ft 30 kts 241°
2026-04-26 13:28 26.55909 -78.69471 16 ft 89 kts 239°
2026-04-26 13:29 26.55550 -78.70206 78 ft 121 kts 240°
2026-04-26 13:29 26.55167 -78.71078 397 ft 129 kts 242°
2026-04-26 13:29 26.54791 -78.72010 771 ft 131 kts 244°
2026-04-26 13:29 26.54435 -78.72945 1124 ft 135 kts 244°
2026-04-26 13:30 26.53941 -78.73872 1437 ft 141 kts 232°
2026-04-26 13:30 26.53373 -78.74759 1831 ft 143 kts 233°
2026-04-26 13:30 26.52795 -78.75691 2169 ft 149 kts 233°
2026-04-26 13:30 26.52304 -78.76729 2485 ft 157 kts 254°
2026-04-26 13:31 26.52332 -78.77961 2845 ft 161 kts 276°
2026-04-26 13:31 26.52538 -78.79203 3188 ft 164 kts 278°
2026-04-26 13:31 26.52735 -78.80462 3515 ft 166 kts 277°
2026-04-26 13:31 26.52901 -78.81746 3844 ft 168 kts 276°
2026-04-26 13:32 26.53033 -78.83044 4175 ft 170 kts 275°
2026-04-26 13:32 26.53143 -78.84361 4503 ft 171 kts 274°
2026-04-26 13:32 26.53240 -78.85684 4852 ft 171 kts 274°
2026-04-26 13:32 26.53315 -78.87009 5203 ft 171 kts 273°
2026-04-26 13:33 26.53381 -78.88336 5555 ft 171 kts 272°
2026-04-26 13:33 26.53447 -78.89656 5905 ft 171 kts 273°
2026-04-26 13:33 26.53512 -78.90982 6257 ft 171 kts 273°
2026-04-26 13:33 26.53575 -78.92300 6606 ft 170 kts 272°
2026-04-26 13:34 26.53639 -78.93614 6955 ft 169 kts 273°
2026-04-26 13:34 26.53702 -78.94919 7307 ft 169 kts 273°
2026-04-26 13:34 26.53762 -78.96229 7651 ft 169 kts 273°
2026-04-26 13:34 26.53801 -78.97111 7828 ft 172 kts 273°
2026-04-26 13:35 26.53839 -78.98940 8054 ft 185 kts 270°
2026-04-26 13:35 26.53828 -79.00439 8019 ft 201 kts 269°
2026-04-26 13:35 26.53798 -79.02039 8007 ft 210 kts 269°
2026-04-26 13:35 26.53748 -79.03694 8003 ft 215 kts 268°
2026-04-26 13:36 26.53688 -79.05372 8001 ft 218 kts 268°
2026-04-26 13:36 26.53624 -79.07072 8000 ft 220 kts 268°
2026-04-26 13:36 26.53547 -79.08776 8001 ft 221 kts 267°
2026-04-26 13:36 26.53458 -79.10492 8000 ft 221 kts 267°
2026-04-26 13:37 26.53366 -79.12200 8000 ft 221 kts 267°
2026-04-26 13:37 26.53274 -79.13920 8000 ft 222 kts 267°
2026-04-26 13:37 26.53190 -79.15636 8000 ft 222 kts 267°
2026-04-26 13:37 26.53102 -79.17350 7999 ft 222 kts 267°
2026-04-26 13:38 26.53011 -79.19068 8000 ft 222 kts 267°
2026-04-26 13:38 26.52921 -79.20789 8000 ft 222 kts 267°
2026-04-26 13:38 26.52836 -79.22509 8000 ft 222 kts 267°
2026-04-26 13:38 26.52747 -79.24220 8000 ft 222 kts 267°
2026-04-26 13:39 26.52656 -79.25935 8000 ft 222 kts 267°
2026-04-26 13:39 26.52565 -79.27654 8000 ft 222 kts 267°
2026-04-26 13:39 26.52478 -79.29373 8000 ft 222 kts 267°
2026-04-26 13:39 26.52390 -79.31091 8000 ft 222 kts 267°
2026-04-26 13:40 26.52302 -79.32805 8000 ft 222 kts 267°
2026-04-26 13:40 26.52212 -79.34520 8000 ft 222 kts 267°
2026-04-26 13:40 26.52124 -79.36237 8001 ft 222 kts 267°
2026-04-26 13:40 26.52036 -79.37955 7999 ft 222 kts 267°
2026-04-26 13:41 26.51949 -79.39667 8000 ft 222 kts 267°
2026-04-26 13:41 26.51861 -79.41386 8000 ft 222 kts 267°
2026-04-26 13:41 26.51775 -79.43106 8001 ft 222 kts 267°
2026-04-26 13:41 26.51689 -79.44815 7999 ft 222 kts 267°
2026-04-26 13:42 26.51602 -79.46532 7997 ft 222 kts 267°
2026-04-26 13:42 26.51516 -79.48253 7995 ft 222 kts 267°
2026-04-26 13:42 26.51429 -79.49970 7994 ft 222 kts 267°
2026-04-26 13:42 26.51342 -79.51689 7996 ft 221 kts 267°
2026-04-26 13:43 26.51258 -79.53391 7993 ft 220 kts 266°
2026-04-26 13:43 26.51189 -79.55096 7992 ft 219 kts 267°
2026-04-26 13:43 26.51124 -79.56793 7992 ft 219 kts 266°
2026-04-26 13:43 26.51046 -79.58484 7989 ft 219 kts 266°
2026-04-26 13:44 26.50964 -79.60175 7989 ft 218 kts 266°
2026-04-26 13:44 26.50882 -79.61870 7990 ft 218 kts 266°
2026-04-26 13:44 26.50800 -79.63561 7999 ft 218 kts 266°
2026-04-26 13:44 26.50718 -79.65234 7998 ft 214 kts 266°
2026-04-26 13:45 26.50638 -79.66864 7994 ft 206 kts 266°
2026-04-26 13:45 26.50560 -79.68419 7993 ft 196 kts 266°
2026-04-26 13:45 26.50474 -79.69910 7992 ft 189 kts 266°
2026-04-26 13:45 26.50395 -79.71372 7843 ft 192 kts 266°
2026-04-26 13:46 26.50392 -79.72881 7645 ft 196 kts 271°
2026-04-26 13:46 26.50533 -79.74405 7445 ft 199 kts 277°
2026-04-26 13:46 26.50803 -79.75922 7247 ft 201 kts 282°
2026-04-26 13:46 26.51181 -79.77429 7047 ft 203 kts 285°
2026-04-26 13:47 26.51642 -79.78930 6790 ft 207 kts 288°
2026-04-26 13:47 26.52167 -79.80440 6488 ft 211 kts 290°
2026-04-26 13:47 26.52736 -79.81960 6189 ft 214 kts 291°
2026-04-26 13:47 26.53340 -79.83490 5891 ft 216 kts 292°
2026-04-26 13:48 26.53970 -79.85024 5587 ft 218 kts 293°
2026-04-26 13:48 26.54614 -79.86560 5288 ft 219 kts 293°
2026-04-26 13:48 26.55257 -79.88095 4988 ft 219 kts 293°
2026-04-26 13:48 26.55913 -79.89635 4691 ft 220 kts 294°
2026-04-26 13:49 26.56584 -79.91178 4390 ft 220 kts 294°
2026-04-26 13:49 26.57193 -79.92729 4168 ft 216 kts 290°
2026-04-26 13:49 26.57671 -79.94300 3945 ft 213 kts 284°
2026-04-26 13:49 26.58031 -79.95897 3726 ft 211 kts 280°
2026-04-26 13:50 26.58298 -79.97498 3507 ft 209 kts 277°
2026-04-26 13:50 26.58505 -79.99098 3284 ft 208 kts 275°
2026-04-26 13:50 26.58669 -80.00697 3062 ft 207 kts 274°
2026-04-26 13:50 26.58859 -80.02258 2988 ft 200 kts 276°
2026-04-26 13:51 26.59083 -80.03766 2992 ft 194 kts 277°
2026-04-26 13:51 26.59312 -80.05226 2997 ft 191 kts 278°
2026-04-26 13:51 26.59557 -80.06677 2997 ft 188 kts 277°
2026-04-26 13:51 26.59793 -80.08109 2993 ft 187 kts 277°
2026-04-26 13:52 26.60020 -80.09533 3001 ft 186 kts 278°
2026-04-26 13:52 26.60260 -80.10950 2996 ft 185 kts 278°
2026-04-26 13:52 26.60493 -80.12358 2997 ft 182 kts 278°
2026-04-26 13:52 26.60712 -80.13724 2992 ft 177 kts 278°
2026-04-26 13:53 26.60932 -80.15056 2990 ft 173 kts 278°
2026-04-26 13:53 26.61149 -80.16366 2993 ft 170 kts 277°
2026-04-26 13:53 26.61358 -80.17652 2994 ft 168 kts 277°
2026-04-26 13:53 26.61565 -80.18927 2993 ft 166 kts 277°
2026-04-26 13:54 26.61772 -80.20196 2994 ft 165 kts 278°
2026-04-26 13:54 26.61980 -80.21454 2994 ft 165 kts 278°
2026-04-26 13:54 26.62189 -80.22707 2995 ft 164 kts 277°
2026-04-26 13:55 26.62603 -80.25216 3003 ft 168 kts 277°
2026-04-26 13:55 26.62743 -80.26075 3005 ft 171 kts 277°
2026-04-26 13:55 26.63251 -80.29184 3004 ft 179 kts 279°
2026-04-26 13:56 26.63790 -80.30463 3011 ft 184 kts 303°
2026-04-26 13:56 26.64676 -80.31503 3011 ft 187 kts 317°
2026-04-26 13:56 26.65743 -80.32292 2987 ft 185 kts 334°
2026-04-26 13:56 26.66997 -80.32527 3013 ft 182 kts 356°
2026-04-26 13:57 26.68251 -80.32456 2989 ft 181 kts 12°
2026-04-26 13:57 26.69312 -80.31750 2996 ft 178 kts 47°
2026-04-26 13:57 26.69831 -80.30538 2999 ft 173 kts 83°
2026-04-26 13:57 26.69718 -80.29228 3025 ft 168 kts 105°
2026-04-26 13:58 26.69355 -80.27992 3005 ft 166 kts 113°
2026-04-26 13:58 26.68998 -80.26801 2922 ft 159 kts 109°
2026-04-26 13:58 26.68760 -80.25604 2745 ft 158 kts 102°
2026-04-26 13:58 26.68656 -80.24379 2526 ft 159 kts 95°
2026-04-26 13:59 26.68651 -80.23143 2299 ft 159 kts 91°
2026-04-26 13:59 26.68695 -80.21987 2207 ft 138 kts 89°
2026-04-26 13:59 26.68732 -80.20944 1999 ft 133 kts 91°
2026-04-26 14:00 26.68660 -80.17897 1337 ft 128 kts 96°
2026-04-26 14:00 26.68603 -80.16913 1163 ft 127 kts 96°
2026-04-26 14:00 26.68564 -80.16252 1050 ft 126 kts 96°
2026-04-26 14:01 26.68500 -80.14955 837 ft 125 kts 95°
2026-04-26 14:01 26.68461 -80.13992 682 ft 124 kts 95°
2026-04-26 14:01 26.68424 -80.13034 524 ft 124 kts 95°
2026-04-26 14:01 26.68385 -80.12061 362 ft 126 kts 95°
2026-04-26 14:02 26.68341 -80.11083 190 ft 126 kts 96°
2026-04-26 14:02 26.68299 -80.10120 49 ft 119 kts 96°
2026-04-26 14:02 26.68258 -80.09322 28 ft 84 kts 97°
2026-04-26 14:02 26.68234 -80.08947 28 ft 20 kts 91°
2026-04-26 14:03 26.68249 -80.08858 28 ft 4 kts 38°
2026-04-26 14:03 26.68282 -80.08844 28 ft 3 kts 10°
2026-04-26 14:03 26.68335 -80.08838 28 ft 17 kts
2026-04-26 14:03 26.68379 -80.08835 28 ft 2 kts
2026-04-26 14:04 26.68439 -80.08863 28 ft 15 kts 277°
2026-04-26 14:04 26.68438 -80.08999 28 ft 19 kts 270°
2026-04-26 14:04 26.68441 -80.09150 28 ft 21 kts 270°
2026-04-26 14:04 26.68468 -80.09304 28 ft 22 kts 316°
2026-04-26 14:05 26.68571 -80.09416 28 ft 17 kts 313°
2026-04-26 14:05 26.68662 -80.09513 28 ft 17 kts 313°
2026-04-26 14:05 26.68746 -80.09560 28 ft 16 kts 31°
2026-04-26 14:05 26.68815 -80.09486 28 ft 9 kts 46°
2026-04-26 14:06 26.68867 -80.09425 28 ft 6 kts 54°
2026-04-26 14:06 26.68868 -80.09404 28 ft 8 kts 112°
2026-04-26 14:06 26.68840 -80.09384 28 ft 0 kts 164°
2026-04-26 14:06 26.68829 -80.09380 28 ft 0 kts 159°